Tracking 31011 objects as of 13-Jul-2025
HD Live streaming from Space Station
objects crossing your sky now

OV1-14

Track OV1-14 now!
10-day predictions
OV1-14 is classified as:


NORAD ID: 3174
Int'l Code: 1968-026B
Perigee: 572.6 km
Apogee: 9,845.8 km
Inclination: 100.0 °
Period: 206.7 minutes
Semi major axis: 11580 km
RCS: 0.7366 m2 (medium)
Launch date: April 6, 1968
Source: United States (US)
Launch site: AIR FORCE WESTERN TEST RANGE (AFWTR)
Your satellite tracking list
Your tracking list is empty




NASA's NSSDC Master Catalog

Two Line Element Set (TLE):
1 03174U 68026B   25191.23851791 -.00000174  00000-0 -28263-3 0  9999
2 03174 100.0237 255.6469 4003908 195.2396 160.4625  6.96671090452500
Source of the keplerian elements: AFSPC